owner,sensor,date,latitude,longitude,relative_humidity,qcFlag 
COMPS,ioos:station:USF.COMPS:SHP:1,2014-03-01T00:00:00Z,30.0600,-84.2910,54.7,1111122 
COMPS,ioos:station:USF.COMPS:SHP:1,2014-03-01T00:06:00Z,30.0600,-84.2910,56.33,1111122 
COMPS,ioos:station:USF.COMPS:SHP:1,2014-03-01T00:12:00Z,30.0600,-84.2910,54.14,1111122 
COMPS,ioos:station:USF.COMPS:SHP:1,2014-03-01T00:18:00Z,30.0600,-84.2910,54.23,1111122 
COMPS,ioos:station:USF.COMPS:SHP:1,2014-03-01T00:24:00Z,30.0600,-84.2910,53.53,1111122 
COMPS,ioos:station:USF.COMPS:SHP:1,2014-03-01T00:30:00Z,30.0600,-84.2910,54.59,1111122 
COMPS,ioos:station:USF.COMPS:SHP:1,2014-03-01T00:36:00Z,30.0600,-84.2910,55.9,1111122 
COMPS,ioos:station:USF.COMPS:SHP:1,2014-03-01T00:42:00Z,30.0600,-84.2910,58.64,1111122 
COMPS,ioos:station:USF.COMPS:SHP:1,2014-03-01T00:48:00Z,30.0600,-84.2910,56.9,1111122 
COMPS,ioos:station:USF.COMPS:SHP:1,2014-03-01T00:54:00Z,30.0600,-84.2910,55.75,1111122 
COMPS,ioos:station:USF.COMPS:SHP:1,2014-03-01T01:00:00Z,30.0600,-84.2910,56.46,1111122 
COMPS,ioos:station:USF.COMPS:SHP:1,2014-03-01T01:06:00Z,30.0600,-84.2910,55.68,1111122 
COMPS,ioos:station:USF.COMPS:SHP:1,2014-03-01T01:12:00Z,30.0600,-84.2910,55.97,1111122 
COMPS,ioos:station:USF.COMPS:SHP:1,2014-03-01T01:18:00Z,30.0600,-84.2910,56.7,1111122 
COMPS,ioos:station:USF.COMPS:SHP:1,2014-03-01T01:24:00Z,30.0600,-84.2910,57.75,1111122 
COMPS,ioos:station:USF.COMPS:SHP:1,2014-03-01T01:30:00Z,30.0600,-84.2910,61.99,1111122 
COMPS,ioos:station:USF.COMPS:SHP:1,2014-03-01T01:36:00Z,30.0600,-84.2910,66.97,1111122 
COMPS,ioos:station:USF.COMPS:SHP:1,2014-03-01T01:42:00Z,30.0600,-84.2910,67.19,1111122 
COMPS,ioos:station:USF.COMPS:SHP:1,2014-03-01T01:48:00Z,30.0600,-84.2910,68.29,1111122 
COMPS,ioos:station:USF.COMPS:SHP:1,2014-03-01T01:54:00Z,30.0600,-84.2910,70.52,1111122 
COMPS,ioos:station:USF.COMPS:SHP:1,2014-03-01T02:00:00Z,30.0600,-84.2910,70.79,1111122 
COMPS,ioos:station:USF.COMPS:SHP:1,2014-03-01T02:06:00Z,30.0600,-84.2910,65.72,1111122 
COMPS,ioos:station:USF.COMPS:SHP:1,2014-03-01T02:12:00Z,30.0600,-84.2910,62.24,1111122 
COMPS,ioos:station:USF.COMPS:SHP:1,2014-03-01T02:18:00Z,30.0600,-84.2910,60.15,1111122 
COMPS,ioos:station:USF.COMPS:SHP:1,2014-03-01T02:24:00Z,30.0600,-84.2910,59.75,1111122 
COMPS,ioos:station:USF.COMPS:SHP:1,2014-03-01T02:30:00Z,30.0600,-84.2910,59.35,1111122 
COMPS,ioos:station:USF.COMPS:SHP:1,2014-03-01T02:36:00Z,30.0600,-84.2910,60.5,1111122 
COMPS,ioos:station:USF.COMPS:SHP:1,2014-03-01T02:42:00Z,30.0600,-84.2910,59.34,1111122 
COMPS,ioos:station:USF.COMPS:SHP:1,2014-03-01T02:48:00Z,30.0600,-84.2910,62.37,1111122 
COMPS,ioos:station:USF.COMPS:SHP:1,2014-03-01T02:54:00Z,30.0600,-84.2910,65.82,1111122 
COMPS,ioos:station:USF.COMPS:SHP:1,2014-03-01T03:00:00Z,30.0600,-84.2910,64.27,1111122 
COMPS,ioos:station:USF.COMPS:SHP:1,2014-03-01T03:06:00Z,30.0600,-84.2910,64.2,1111122 
COMPS,ioos:station:USF.COMPS:SHP:1,2014-03-01T03:12:00Z,30.0600,-84.2910,64.63,1111122 
COMPS,ioos:station:USF.COMPS:SHP:1,2014-03-01T03:18:00Z,30.0600,-84.2910,65.33,1111122 
COMPS,ioos:station:USF.COMPS:SHP:1,2014-03-01T03:24:00Z,30.0600,-84.2910,64.86,1111122 
COMPS,ioos:station:USF.COMPS:SHP:1,2014-03-01T03:30:00Z,30.0600,-84.2910,63.95,1111122 
COMPS,ioos:station:USF.COMPS:SHP:1,2014-03-01T03:36:00Z,30.0600,-84.2910,62.58,1111122 
COMPS,ioos:station:USF.COMPS:SHP:1,2014-03-01T03:42:00Z,30.0600,-84.2910,62.21,1111122 
COMPS,ioos:station:USF.COMPS:SHP:1,2014-03-01T03:48:00Z,30.0600,-84.2910,63.33,1111122 
COMPS,ioos:station:USF.COMPS:SHP:1,2014-03-01T03:54:00Z,30.0600,-84.2910,64.19,1111122 
COMPS,ioos:station:USF.COMPS:SHP:1,2014-03-01T04:00:00Z,30.0600,-84.2910,63.54,1111122 
COMPS,ioos:station:USF.COMPS:SHP:1,2014-03-01T04:06:00Z,30.0600,-84.2910,63.62,1111122 
COMPS,ioos:station:USF.COMPS:SHP:1,2014-03-01T04:12:00Z,30.0600,-84.2910,64.02,1111122 
COMPS,ioos:station:USF.COMPS:SHP:1,2014-03-01T04:18:00Z,30.0600,-84.2910,64.07,1111122 
COMPS,ioos:station:USF.COMPS:SHP:1,2014-03-01T04:24:00Z,30.0600,-84.2910,65.15,1111122 
COMPS,ioos:station:USF.COMPS:SHP:1,2014-03-01T04:30:00Z,30.0600,-84.2910,65.46,1111122 
COMPS,ioos:station:USF.COMPS:SHP:1,2014-03-01T04:36:00Z,30.0600,-84.2910,64.34,1111122 
COMPS,ioos:station:USF.COMPS:SHP:1,2014-03-01T04:42:00Z,30.0600,-84.2910,65.55,1111122 
COMPS,ioos:station:USF.COMPS:SHP:1,2014-03-01T04:48:00Z,30.0600,-84.2910,66.76,1111122 
COMPS,ioos:station:USF.COMPS:SHP:1,2014-03-01T04:54:00Z,30.0600,-84.2910,68.89,1111122 
COMPS,ioos:station:USF.COMPS:SHP:1,2014-03-01T05:00:00Z,30.0600,-84.2910,69.41,1111122 
COMPS,ioos:station:USF.COMPS:SHP:1,2014-03-01T05:06:00Z,30.0600,-84.2910,67.05,1111122 
COMPS,ioos:station:USF.COMPS:SHP:1,2014-03-01T05:12:00Z,30.0600,-84.2910,67.49,1111122 
COMPS,ioos:station:USF.COMPS:SHP:1,2014-03-01T05:18:00Z,30.0600,-84.2910,70.15,1111122 
COMPS,ioos:station:USF.COMPS:SHP:1,2014-03-01T05:24:00Z,30.0600,-84.2910,70.95,1111122 
COMPS,ioos:station:USF.COMPS:SHP:1,2014-03-01T05:30:00Z,30.0600,-84.2910,72.26,1111122 
COMPS,ioos:station:USF.COMPS:SHP:1,2014-03-01T05:36:00Z,30.0600,-84.2910,69.25,1111122 
COMPS,ioos:station:USF.COMPS:SHP:1,2014-03-01T05:42:00Z,30.0600,-84.2910,67.51,1111122 
COMPS,ioos:station:USF.COMPS:SHP:1,2014-03-01T05:48:00Z,30.0600,-84.2910,67.06,1111122 
COMPS,ioos:station:USF.COMPS:SHP:1,2014-03-01T05:54:00Z,30.0600,-84.2910,67.71,1111122 
COMPS,ioos:station:USF.COMPS:SHP:1,2014-03-01T06:00:00Z,30.0600,-84.2910,68.65,1111122 
COMPS,ioos:station:USF.COMPS:SHP:1,2014-03-01T06:06:00Z,30.0600,-84.2910,72.77,1111122 
COMPS,ioos:station:USF.COMPS:SHP:1,2014-03-01T06:12:00Z,30.0600,-84.2910,74.57,1111122 
COMPS,ioos:station:USF.COMPS:SHP:1,2014-03-01T06:18:00Z,30.0600,-84.2910,72.88,1111122 
COMPS,ioos:station:USF.COMPS:SHP:1,2014-03-01T06:24:00Z,30.0600,-84.2910,75.47,1111122 
COMPS,ioos:station:USF.COMPS:SHP:1,2014-03-01T06:30:00Z,30.0600,-84.2910,78.42,1111122 
COMPS,ioos:station:USF.COMPS:SHP:1,2014-03-01T06:36:00Z,30.0600,-84.2910,83.03,1111122 
COMPS,ioos:station:USF.COMPS:SHP:1,2014-03-01T06:42:00Z,30.0600,-84.2910,81.02,1111122 
COMPS,ioos:station:USF.COMPS:SHP:1,2014-03-01T06:48:00Z,30.0600,-84.2910,80.69,1111122 
COMPS,ioos:station:USF.COMPS:SHP:1,2014-03-01T06:54:00Z,30.0600,-84.2910,77.57,1111122 
COMPS,ioos:station:USF.COMPS:SHP:1,2014-03-01T07:00:00Z,30.0600,-84.2910,77.36,1111122 
COMPS,ioos:station:USF.COMPS:SHP:1,2014-03-01T07:06:00Z,30.0600,-84.2910,78.44,1111122 
COMPS,ioos:station:USF.COMPS:SHP:1,2014-03-01T07:12:00Z,30.0600,-84.2910,77.98,1111122 
COMPS,ioos:station:USF.COMPS:SHP:1,2014-03-01T07:18:00Z,30.0600,-84.2910,79.09,1111122 
COMPS,ioos:station:USF.COMPS:SHP:1,2014-03-01T07:24:00Z,30.0600,-84.2910,79.07,1111122 
COMPS,ioos:station:USF.COMPS:SHP:1,2014-03-01T07:30:00Z,30.0600,-84.2910,80.92,1111122 
COMPS,ioos:station:USF.COMPS:SHP:1,2014-03-01T07:36:00Z,30.0600,-84.2910,81.63,1111122 
COMPS,ioos:station:USF.COMPS:SHP:1,2014-03-01T07:42:00Z,30.0600,-84.2910,83.91,1111122 
COMPS,ioos:station:USF.COMPS:SHP:1,2014-03-01T07:48:00Z,30.0600,-84.2910,85.87,1111122 
COMPS,ioos:station:USF.COMPS:SHP:1,2014-03-01T07:54:00Z,30.0600,-84.2910,85.58,1111122 
COMPS,ioos:station:USF.COMPS:SHP:1,2014-03-01T08:00:00Z,30.0600,-84.2910,85.28,1111122 
COMPS,ioos:station:USF.COMPS:SHP:1,2014-03-01T08:06:00Z,30.0600,-84.2910,85.04,1111122 
COMPS,ioos:station:USF.COMPS:SHP:1,2014-03-01T08:12:00Z,30.0600,-84.2910,84.27,1111122 
COMPS,ioos:station:USF.COMPS:SHP:1,2014-03-01T08:18:00Z,30.0600,-84.2910,81.08,1111122 
COMPS,ioos:station:USF.COMPS:SHP:1,2014-03-01T08:24:00Z,30.0600,-84.2910,80.42,1111122 
COMPS,ioos:station:USF.COMPS:SHP:1,2014-03-01T08:30:00Z,30.0600,-84.2910,79.22,1111122 
COMPS,ioos:station:USF.COMPS:SHP:1,2014-03-01T08:36:00Z,30.0600,-84.2910,78.8,1111122 
COMPS,ioos:station:USF.COMPS:SHP:1,2014-03-01T08:42:00Z,30.0600,-84.2910,79.41,1111122 
COMPS,ioos:station:USF.COMPS:SHP:1,2014-03-01T08:48:00Z,30.0600,-84.2910,80.96,1111122 
COMPS,ioos:station:USF.COMPS:SHP:1,2014-03-01T08:54:00Z,30.0600,-84.2910,83.21,1111122 
COMPS,ioos:station:USF.COMPS:SHP:1,2014-03-01T09:00:00Z,30.0600,-84.2910,83.13,1111122 
COMPS,ioos:station:USF.COMPS:SHP:1,2014-03-01T09:06:00Z,30.0600,-84.2910,82.03,1111122 
COMPS,ioos:station:USF.COMPS:SHP:1,2014-03-01T09:12:00Z,30.0600,-84.2910,82.49,1111122 
COMPS,ioos:station:USF.COMPS:SHP:1,2014-03-01T09:18:00Z,30.0600,-84.2910,83.17,1111122 
COMPS,ioos:station:USF.COMPS:SHP:1,2014-03-01T09:24:00Z,30.0600,-84.2910,83.24,1111122 
COMPS,ioos:station:USF.COMPS:SHP:1,2014-03-01T09:30:00Z,30.0600,-84.2910,83.56,1111122 
COMPS,ioos:station:USF.COMPS:SHP:1,2014-03-01T09:36:00Z,30.0600,-84.2910,84.43,1111122 
COMPS,ioos:station:USF.COMPS:SHP:1,2014-03-01T09:42:00Z,30.0600,-84.2910,85.09,1111122 
COMPS,ioos:station:USF.COMPS:SHP:1,2014-03-01T09:48:00Z,30.0600,-84.2910,85.45,1111122 
COMPS,ioos:station:USF.COMPS:SHP:1,2014-03-01T09:54:00Z,30.0600,-84.2910,86.32,1111122 
COMPS,ioos:station:USF.COMPS:SHP:1,2014-03-01T10:00:00Z,30.0600,-84.2910,86.25,1111122 
COMPS,ioos:station:USF.COMPS:SHP:1,2014-03-01T10:06:00Z,30.0600,-84.2910,86.91,1111122 
COMPS,ioos:station:USF.COMPS:SHP:1,2014-03-01T10:12:00Z,30.0600,-84.2910,87.64,1111122 
COMPS,ioos:station:USF.COMPS:SHP:1,2014-03-01T10:18:00Z,30.0600,-84.2910,88.4,1111122 
COMPS,ioos:station:USF.COMPS:SHP:1,2014-03-01T10:24:00Z,30.0600,-84.2910,88.91,1111122 
COMPS,ioos:station:USF.COMPS:SHP:1,2014-03-01T10:30:00Z,30.0600,-84.2910,88.99,1111122 
COMPS,ioos:station:USF.COMPS:SHP:1,2014-03-01T10:36:00Z,30.0600,-84.2910,88.99,1111122 
COMPS,ioos:station:USF.COMPS:SHP:1,2014-03-01T10:42:00Z,30.0600,-84.2910,89.5,1111122 
COMPS,ioos:station:USF.COMPS:SHP:1,2014-03-01T10:48:00Z,30.0600,-84.2910,90.55,1111122 
COMPS,ioos:station:USF.COMPS:SHP:1,2014-03-01T10:54:00Z,30.0600,-84.2910,91.61,1111122 
COMPS,ioos:station:USF.COMPS:SHP:1,2014-03-01T11:00:00Z,30.0600,-84.2910,92.1,1111122 
COMPS,ioos:station:USF.COMPS:SHP:1,2014-03-01T11:06:00Z,30.0600,-84.2910,91.9,1111122 
COMPS,ioos:station:USF.COMPS:SHP:1,2014-03-01T11:12:00Z,30.0600,-84.2910,91.83,1111122 
COMPS,ioos:station:USF.COMPS:SHP:1,2014-03-01T11:18:00Z,30.0600,-84.2910,92.04,1111122 
COMPS,ioos:station:USF.COMPS:SHP:1,2014-03-01T11:24:00Z,30.0600,-84.2910,92.06,1111122 
COMPS,ioos:station:USF.COMPS:SHP:1,2014-03-01T11:30:00Z,30.0600,-84.2910,92.0,1111122 
COMPS,ioos:station:USF.COMPS:SHP:1,2014-03-01T11:36:00Z,30.0600,-84.2910,90.19,1111122 
COMPS,ioos:station:USF.COMPS:SHP:1,2014-03-01T11:42:00Z,30.0600,-84.2910,89.16,1111122 
COMPS,ioos:station:USF.COMPS:SHP:1,2014-03-01T11:48:00Z,30.0600,-84.2910,89.7,1111122 
COMPS,ioos:station:USF.COMPS:SHP:1,2014-03-01T11:54:00Z,30.0600,-84.2910,90.11,1111122 
COMPS,ioos:station:USF.COMPS:SHP:1,2014-03-01T12:00:00Z,30.0600,-84.2910,90.57,1111122 
COMPS,ioos:station:USF.COMPS:SHP:1,2014-03-01T12:06:00Z,30.0600,-84.2910,90.76,1111122 
COMPS,ioos:station:USF.COMPS:SHP:1,2014-03-01T12:12:00Z,30.0600,-84.2910,91.09,1111122 
COMPS,ioos:station:USF.COMPS:SHP:1,2014-03-01T12:18:00Z,30.0600,-84.2910,91.61,1111122 
COMPS,ioos:station:USF.COMPS:SHP:1,2014-03-01T12:24:00Z,30.0600,-84.2910,91.83,1111122 
COMPS,ioos:station:USF.COMPS:SHP:1,2014-03-01T12:30:00Z,30.0600,-84.2910,91.84,1111122 
COMPS,ioos:station:USF.COMPS:SHP:1,2014-03-01T12:36:00Z,30.0600,-84.2910,92.24,1111122 
COMPS,ioos:station:USF.COMPS:SHP:1,2014-03-01T12:42:00Z,30.0600,-84.2910,92.12,1111122 
COMPS,ioos:station:USF.COMPS:SHP:1,2014-03-01T12:48:00Z,30.0600,-84.2910,91.48,1111122 
COMPS,ioos:station:USF.COMPS:SHP:1,2014-03-01T12:54:00Z,30.0600,-84.2910,91.8,1111122 
COMPS,ioos:station:USF.COMPS:SHP:1,2014-03-01T13:00:00Z,30.0600,-84.2910,91.21,1111122 
COMPS,ioos:station:USF.COMPS:SHP:1,2014-03-01T13:06:00Z,30.0600,-84.2910,90.79,1111122 
COMPS,ioos:station:USF.COMPS:SHP:1,2014-03-01T13:12:00Z,30.0600,-84.2910,90.25,1111122 
COMPS,ioos:station:USF.COMPS:SHP:1,2014-03-01T13:18:00Z,30.0600,-84.2910,89.22,1111122 
COMPS,ioos:station:USF.COMPS:SHP:1,2014-03-01T13:24:00Z,30.0600,-84.2910,88.29,1111122 
COMPS,ioos:station:USF.COMPS:SHP:1,2014-03-01T13:30:00Z,30.0600,-84.2910,87.42,1111122 
COMPS,ioos:station:USF.COMPS:SHP:1,2014-03-01T13:36:00Z,30.0600,-84.2910,86.44,1111122 
COMPS,ioos:station:USF.COMPS:SHP:1,2014-03-01T13:42:00Z,30.0600,-84.2910,86.14,1111122 
COMPS,ioos:station:USF.COMPS:SHP:1,2014-03-01T13:48:00Z,30.0600,-84.2910,85.07,1111122 
COMPS,ioos:station:USF.COMPS:SHP:1,2014-03-01T13:54:00Z,30.0600,-84.2910,84.56,1111122 
COMPS,ioos:station:USF.COMPS:SHP:1,2014-03-01T14:00:00Z,30.0600,-84.2910,83.77,1111122 
COMPS,ioos:station:USF.COMPS:SHP:1,2014-03-01T14:06:00Z,30.0600,-84.2910,82.99,1111122 
COMPS,ioos:station:USF.COMPS:SHP:1,2014-03-01T14:12:00Z,30.0600,-84.2910,82.52,1111122 
COMPS,ioos:station:USF.COMPS:SHP:1,2014-03-01T14:18:00Z,30.0600,-84.2910,81.89,1111122 
COMPS,ioos:station:USF.COMPS:SHP:1,2014-03-01T14:24:00Z,30.0600,-84.2910,81.12,1111122 
COMPS,ioos:station:USF.COMPS:SHP:1,2014-03-01T14:30:00Z,30.0600,-84.2910,80.26,1111122 
COMPS,ioos:station:USF.COMPS:SHP:1,2014-03-01T14:36:00Z,30.0600,-84.2910,79.71,1111122 
COMPS,ioos:station:USF.COMPS:SHP:1,2014-03-01T14:42:00Z,30.0600,-84.2910,79.86,1111122 
COMPS,ioos:station:USF.COMPS:SHP:1,2014-03-01T14:48:00Z,30.0600,-84.2910,78.15,1111122 
COMPS,ioos:station:USF.COMPS:SHP:1,2014-03-01T14:54:00Z,30.0600,-84.2910,76.78,1111122 
COMPS,ioos:station:USF.COMPS:SHP:1,2014-03-01T15:00:00Z,30.0600,-84.2910,75.31,1111122 
COMPS,ioos:station:USF.COMPS:SHP:1,2014-03-01T15:06:00Z,30.0600,-84.2910,73.17,1111122 
COMPS,ioos:station:USF.COMPS:SHP:1,2014-03-01T15:12:00Z,30.0600,-84.2910,73.26,1111122 
COMPS,ioos:station:USF.COMPS:SHP:1,2014-03-01T15:18:00Z,30.0600,-84.2910,72.36,1111122 
COMPS,ioos:station:USF.COMPS:SHP:1,2014-03-01T15:24:00Z,30.0600,-84.2910,70.28,1111122 
COMPS,ioos:station:USF.COMPS:SHP:1,2014-03-01T15:30:00Z,30.0600,-84.2910,69.91,1111122 
COMPS,ioos:station:USF.COMPS:SHP:1,2014-03-01T15:36:00Z,30.0600,-84.2910,67.47,1111122 
COMPS,ioos:station:USF.COMPS:SHP:1,2014-03-01T15:42:00Z,30.0600,-84.2910,67.68,1111122 
COMPS,ioos:station:USF.COMPS:SHP:1,2014-03-01T15:48:00Z,30.0600,-84.2910,67.92,1111122 
COMPS,ioos:station:USF.COMPS:SHP:1,2014-03-01T15:54:00Z,30.0600,-84.2910,68.39,1111122 
COMPS,ioos:station:USF.COMPS:SHP:1,2014-03-01T16:00:00Z,30.0600,-84.2910,65.65,1111122 
COMPS,ioos:station:USF.COMPS:SHP:1,2014-03-01T16:06:00Z,30.0600,-84.2910,66.55,1111122 
COMPS,ioos:station:USF.COMPS:SHP:1,2014-03-01T16:12:00Z,30.0600,-84.2910,67.29,1111122 
COMPS,ioos:station:USF.COMPS:SHP:1,2014-03-01T16:18:00Z,30.0600,-84.2910,69.41,1111122 
COMPS,ioos:station:USF.COMPS:SHP:1,2014-03-01T16:24:00Z,30.0600,-84.2910,67.89,1111122 
COMPS,ioos:station:USF.COMPS:SHP:1,2014-03-01T16:30:00Z,30.0600,-84.2910,66.73,1111122 
COMPS,ioos:station:USF.COMPS:SHP:1,2014-03-01T16:36:00Z,30.0600,-84.2910,66.47,1111122 
COMPS,ioos:station:USF.COMPS:SHP:1,2014-03-01T16:42:00Z,30.0600,-84.2910,66.43,1111122 
COMPS,ioos:station:USF.COMPS:SHP:1,2014-03-01T16:48:00Z,30.0600,-84.2910,66.22,1111122 
COMPS,ioos:station:USF.COMPS:SHP:1,2014-03-01T16:54:00Z,30.0600,-84.2910,67.11,1111122 
COMPS,ioos:station:USF.COMPS:SHP:1,2014-03-01T17:00:00Z,30.0600,-84.2910,67.0,1111122 
COMPS,ioos:station:USF.COMPS:SHP:1,2014-03-01T17:06:00Z,30.0600,-84.2910,68.85,1111122 
COMPS,ioos:station:USF.COMPS:SHP:1,2014-03-01T17:12:00Z,30.0600,-84.2910,70.43,1111122 
COMPS,ioos:station:USF.COMPS:SHP:1,2014-03-01T17:18:00Z,30.0600,-84.2910,69.06,1111122 
COMPS,ioos:station:USF.COMPS:SHP:1,2014-03-01T17:24:00Z,30.0600,-84.2910,67.0,1111122 
COMPS,ioos:station:USF.COMPS:SHP:1,2014-03-01T17:30:00Z,30.0600,-84.2910,67.39,1111122 
COMPS,ioos:station:USF.COMPS:SHP:1,2014-03-01T17:36:00Z,30.0600,-84.2910,68.41,1111122 
COMPS,ioos:station:USF.COMPS:SHP:1,2014-03-01T17:42:00Z,30.0600,-84.2910,69.65,1111122 
COMPS,ioos:station:USF.COMPS:SHP:1,2014-03-01T17:48:00Z,30.0600,-84.2910,69.18,1111122 
COMPS,ioos:station:USF.COMPS:SHP:1,2014-03-01T17:54:00Z,30.0600,-84.2910,68.8,1111122 
COMPS,ioos:station:USF.COMPS:SHP:1,2014-03-01T18:00:00Z,30.0600,-84.2910,67.88,1111122 
COMPS,ioos:station:USF.COMPS:SHP:1,2014-03-01T18:06:00Z,30.0600,-84.2910,66.3,1111122 
COMPS,ioos:station:USF.COMPS:SHP:1,2014-03-01T18:12:00Z,30.0600,-84.2910,66.16,1111122 
COMPS,ioos:station:USF.COMPS:SHP:1,2014-03-01T18:18:00Z,30.0600,-84.2910,65.92,1111122 
COMPS,ioos:station:USF.COMPS:SHP:1,2014-03-01T18:24:00Z,30.0600,-84.2910,67.28,1111122 
COMPS,ioos:station:USF.COMPS:SHP:1,2014-03-01T18:30:00Z,30.0600,-84.2910,67.07,1111122 
COMPS,ioos:station:USF.COMPS:SHP:1,2014-03-01T18:36:00Z,30.0600,-84.2910,65.34,1111122 
COMPS,ioos:station:USF.COMPS:SHP:1,2014-03-01T18:42:00Z,30.0600,-84.2910,65.55,1111122 
COMPS,ioos:station:USF.COMPS:SHP:1,2014-03-01T18:48:00Z,30.0600,-84.2910,64.36,1111122 
COMPS,ioos:station:USF.COMPS:SHP:1,2014-03-01T18:54:00Z,30.0600,-84.2910,65.04,1111122 
COMPS,ioos:station:USF.COMPS:SHP:1,2014-03-01T19:00:00Z,30.0600,-84.2910,63.55,1111122 
COMPS,ioos:station:USF.COMPS:SHP:1,2014-03-01T19:06:00Z,30.0600,-84.2910,64.28,1111122 
COMPS,ioos:station:USF.COMPS:SHP:1,2014-03-01T19:12:00Z,30.0600,-84.2910,66.29,1111122 
COMPS,ioos:station:USF.COMPS:SHP:1,2014-03-01T19:18:00Z,30.0600,-84.2910,65.04,1111122 
COMPS,ioos:station:USF.COMPS:SHP:1,2014-03-01T19:24:00Z,30.0600,-84.2910,64.14,1111122 
COMPS,ioos:station:USF.COMPS:SHP:1,2014-03-01T19:30:00Z,30.0600,-84.2910,65.04,1111122 
COMPS,ioos:station:USF.COMPS:SHP:1,2014-03-01T19:36:00Z,30.0600,-84.2910,63.65,1111122 
COMPS,ioos:station:USF.COMPS:SHP:1,2014-03-01T19:42:00Z,30.0600,-84.2910,62.2,1111122 
COMPS,ioos:station:USF.COMPS:SHP:1,2014-03-01T19:48:00Z,30.0600,-84.2910,61.72,1111122 
COMPS,ioos:station:USF.COMPS:SHP:1,2014-03-01T19:54:00Z,30.0600,-84.2910,60.3,1111122 
COMPS,ioos:station:USF.COMPS:SHP:1,2014-03-01T20:00:00Z,30.0600,-84.2910,60.65,1111122 
COMPS,ioos:station:USF.COMPS:SHP:1,2014-03-01T20:06:00Z,30.0600,-84.2910,59.79,1111122 
COMPS,ioos:station:USF.COMPS:SHP:1,2014-03-01T20:12:00Z,30.0600,-84.2910,59.94,1111122 
COMPS,ioos:station:USF.COMPS:SHP:1,2014-03-01T20:18:00Z,30.0600,-84.2910,57.72,1111122 
COMPS,ioos:station:USF.COMPS:SHP:1,2014-03-01T20:24:00Z,30.0600,-84.2910,57.06,1111122 
COMPS,ioos:station:USF.COMPS:SHP:1,2014-03-01T20:30:00Z,30.0600,-84.2910,57.75,1111122 
COMPS,ioos:station:USF.COMPS:SHP:1,2014-03-01T20:36:00Z,30.0600,-84.2910,57.8,1111122 
COMPS,ioos:station:USF.COMPS:SHP:1,2014-03-01T20:42:00Z,30.0600,-84.2910,56.45,1111122 
COMPS,ioos:station:USF.COMPS:SHP:1,2014-03-01T20:48:00Z,30.0600,-84.2910,55.49,1111122 
COMPS,ioos:station:USF.COMPS:SHP:1,2014-03-01T20:54:00Z,30.0600,-84.2910,56.13,1111122 
COMPS,ioos:station:USF.COMPS:SHP:1,2014-03-01T21:00:00Z,30.0600,-84.2910,56.25,1111122 
COMPS,ioos:station:USF.COMPS:SHP:1,2014-03-01T21:06:00Z,30.0600,-84.2910,56.61,1111122 
COMPS,ioos:station:USF.COMPS:SHP:1,2014-03-01T21:12:00Z,30.0600,-84.2910,55.67,1111122 
COMPS,ioos:station:USF.COMPS:SHP:1,2014-03-01T21:18:00Z,30.0600,-84.2910,56.24,1111122 
COMPS,ioos:station:USF.COMPS:SHP:1,2014-03-01T21:24:00Z,30.0600,-84.2910,56.02,1111122 
COMPS,ioos:station:USF.COMPS:SHP:1,2014-03-01T21:30:00Z,30.0600,-84.2910,56.01,1111122 
COMPS,ioos:station:USF.COMPS:SHP:1,2014-03-01T21:36:00Z,30.0600,-84.2910,55.67,1111122 
COMPS,ioos:station:USF.COMPS:SHP:1,2014-03-01T21:42:00Z,30.0600,-84.2910,54.23,1111122 
COMPS,ioos:station:USF.COMPS:SHP:1,2014-03-01T21:48:00Z,30.0600,-84.2910,55.22,1111122 
COMPS,ioos:station:USF.COMPS:SHP:1,2014-03-01T21:54:00Z,30.0600,-84.2910,56.12,1111122 
COMPS,ioos:station:USF.COMPS:SHP:1,2014-03-01T22:00:00Z,30.0600,-84.2910,54.24,1111122 
COMPS,ioos:station:USF.COMPS:SHP:1,2014-03-01T22:06:00Z,30.0600,-84.2910,54.72,1111122 
COMPS,ioos:station:USF.COMPS:SHP:1,2014-03-01T22:12:00Z,30.0600,-84.2910,52.62,1111122 
COMPS,ioos:station:USF.COMPS:SHP:1,2014-03-01T22:18:00Z,30.0600,-84.2910,53.61,1111122 
COMPS,ioos:station:USF.COMPS:SHP:1,2014-03-01T22:24:00Z,30.0600,-84.2910,54.54,1111122 
COMPS,ioos:station:USF.COMPS:SHP:1,2014-03-01T22:30:00Z,30.0600,-84.2910,54.87,1111122 
COMPS,ioos:station:USF.COMPS:SHP:1,2014-03-01T22:36:00Z,30.0600,-84.2910,54.18,1111122 
COMPS,ioos:station:USF.COMPS:SHP:1,2014-03-01T22:42:00Z,30.0600,-84.2910,55.22,1111122 
COMPS,ioos:station:USF.COMPS:SHP:1,2014-03-01T22:48:00Z,30.0600,-84.2910,56.85,1111122 
COMPS,ioos:station:USF.COMPS:SHP:1,2014-03-01T22:54:00Z,30.0600,-84.2910,54.97,1111122 
COMPS,ioos:station:USF.COMPS:SHP:1,2014-03-01T23:00:00Z,30.0600,-84.2910,59.35,1111122 
COMPS,ioos:station:USF.COMPS:SHP:1,2014-03-01T23:06:00Z,30.0600,-84.2910,60.82,1111122 
COMPS,ioos:station:USF.COMPS:SHP:1,2014-03-01T23:12:00Z,30.0600,-84.2910,61.46,1111122 
COMPS,ioos:station:USF.COMPS:SHP:1,2014-03-01T23:18:00Z,30.0600,-84.2910,62.9,1111122 
COMPS,ioos:station:USF.COMPS:SHP:1,2014-03-01T23:24:00Z,30.0600,-84.2910,63.46,1111122 
COMPS,ioos:station:USF.COMPS:SHP:1,2014-03-01T23:30:00Z,30.0600,-84.2910,65.28,1111122 
COMPS,ioos:station:USF.COMPS:SHP:1,2014-03-01T23:36:00Z,30.0600,-84.2910,66.11,1111122 
COMPS,ioos:station:USF.COMPS:SHP:1,2014-03-01T23:42:00Z,30.0600,-84.2910,67.13,1111122 
COMPS,ioos:station:USF.COMPS:SHP:1,2014-03-01T23:48:00Z,30.0600,-84.2910,67.17,1111122 
COMPS,ioos:station:USF.COMPS:SHP:1,2014-03-01T23:54:00Z,30.0600,-84.2910,65.88,1111122 
COMPS,ioos:station:USF.COMPS:SHP:1,2014-03-02T00:00:00Z,30.0600,-84.2910,68.98,1111122 
COMPS,ioos:station:USF.COMPS:SHP:1,2014-03-02T00:06:00Z,30.0600,-84.2910,68.96,1111122 
COMPS,ioos:station:USF.COMPS:SHP:1,2014-03-02T00:12:00Z,30.0600,-84.2910,71.44,1111122 
COMPS,ioos:station:USF.COMPS:SHP:1,2014-03-02T00:18:00Z,30.0600,-84.2910,71.97,1111122 
COMPS,ioos:station:USF.COMPS:SHP:1,2014-03-02T00:24:00Z,30.0600,-84.2910,72.74,1111122 
COMPS,ioos:station:USF.COMPS:SHP:1,2014-03-02T00:30:00Z,30.0600,-84.2910,74.39,1111122 
COMPS,ioos:station:USF.COMPS:SHP:1,2014-03-02T00:36:00Z,30.0600,-84.2910,74.56,1111122 
COMPS,ioos:station:USF.COMPS:SHP:1,2014-03-02T00:42:00Z,30.0600,-84.2910,75.31,1111122 
COMPS,ioos:station:USF.COMPS:SHP:1,2014-03-02T00:48:00Z,30.0600,-84.2910,76.33,1111122 
COMPS,ioos:station:USF.COMPS:SHP:1,2014-03-02T00:54:00Z,30.0600,-84.2910,76.8,1111122 
COMPS,ioos:station:USF.COMPS:SHP:1,2014-03-02T01:00:00Z,30.0600,-84.2910,76.14,1111122 
COMPS,ioos:station:USF.COMPS:SHP:1,2014-03-02T01:06:00Z,30.0600,-84.2910,78.64,1111122 
COMPS,ioos:station:USF.COMPS:SHP:1,2014-03-02T01:12:00Z,30.0600,-84.2910,79.68,1111122 
COMPS,ioos:station:USF.COMPS:SHP:1,2014-03-02T01:18:00Z,30.0600,-84.2910,80.31,1111122 
COMPS,ioos:station:USF.COMPS:SHP:1,2014-03-02T01:24:00Z,30.0600,-84.2910,80.86,1111122 
COMPS,ioos:station:USF.COMPS:SHP:1,2014-03-02T01:30:00Z,30.0600,-84.2910,81.02,1111122 
COMPS,ioos:station:USF.COMPS:SHP:1,2014-03-02T01:36:00Z,30.0600,-84.2910,81.94,1111122 
COMPS,ioos:station:USF.COMPS:SHP:1,2014-03-02T01:42:00Z,30.0600,-84.2910,82.42,1111122 
COMPS,ioos:station:USF.COMPS:SHP:1,2014-03-02T01:48:00Z,30.0600,-84.2910,83.19,1111122 
COMPS,ioos:station:USF.COMPS:SHP:1,2014-03-02T01:54:00Z,30.0600,-84.2910,85.06,1111122 
COMPS,ioos:station:USF.COMPS:SHP:1,2014-03-02T02:00:00Z,30.0600,-84.2910,86.89,1111122 
COMPS,ioos:station:USF.COMPS:SHP:1,2014-03-02T02:06:00Z,30.0600,-84.2910,87.37,1111122 
COMPS,ioos:station:USF.COMPS:SHP:1,2014-03-02T02:12:00Z,30.0600,-84.2910,87.1,1111122 
COMPS,ioos:station:USF.COMPS:SHP:1,2014-03-02T02:18:00Z,30.0600,-84.2910,87.45,1111122 
COMPS,ioos:station:USF.COMPS:SHP:1,2014-03-02T02:24:00Z,30.0600,-84.2910,87.48,1111122 
COMPS,ioos:station:USF.COMPS:SHP:1,2014-03-02T02:30:00Z,30.0600,-84.2910,86.84,1111122 
COMPS,ioos:station:USF.COMPS:SHP:1,2014-03-02T02:36:00Z,30.0600,-84.2910,86.45,1111122 
COMPS,ioos:station:USF.COMPS:SHP:1,2014-03-02T02:42:00Z,30.0600,-84.2910,86.56,1111122 
COMPS,ioos:station:USF.COMPS:SHP:1,2014-03-02T02:48:00Z,30.0600,-84.2910,86.51,1111122 
COMPS,ioos:station:USF.COMPS:SHP:1,2014-03-02T02:54:00Z,30.0600,-84.2910,86.61,1111122 
COMPS,ioos:station:USF.COMPS:SHP:1,2014-03-02T03:00:00Z,30.0600,-84.2910,87.57,1111122 
COMPS,ioos:station:USF.COMPS:SHP:1,2014-03-02T03:06:00Z,30.0600,-84.2910,88.34,1111122 